Regional Weather Roundup
Issued by NWS Wakefield, VA

Home | Current Version | Previous Version | Text Only | Print | Product List | Glossary Off
Versions: 1 2 3 4 5 6 7 8 9 10 11 12 13 14 15 16 17 18 19 20 21 22 23 24 25 26 27 28

000
ASUS41 KAKQ 180915
RWRAKQ

REGIONAL WEATHER ROUNDUP
NATIONAL WEATHER SERVICE WAKEFIELD VA
500 AM EDT WED OCT 18 2017

Note: "fair" indicates few or no clouds below 12,000 feet with no
significant weather and/or obstructions to visibility. * = Denotes
station may not report precipitation (e.g., rain,snow,etc.),
thunder or fog.

VAZ042-051-052>054-056-181000-
NORTHERN VIRGINIA

CITY           SKY/WX    TMP DP  RH WIND       PRES   REMARKS
WASH NATIONAL  PTCLDY    47  41  80 SW3       30.35R
DULLES         CLEAR     38  37  97 CALM      30.34R
FORT BELVOIR   CLEAR     39  38  96 CALM      30.35R
QUANTICO       CLEAR     43  41  93 NW7       30.36R
FREDERICKSBRG* CLEAR     38  38 100 CALM      30.34S
STAFFORD*      CLEAR     33  33 100 CALM      30.39R
WARRENTON      CLEAR     34  32  92 CALM      30.34R
CULPEPER*      CLEAR     35  34  94 CALM      30.35S
MANASSAS*      CLEAR     35  35 100 CALM      30.35R
LEESBURG*      CLEAR     39  39 100 CALM      30.35R
WINCHESTER     CLEAR     41  36  81 SW3       30.33R
FRONT ROYAL*   SUNNY     41  37  87 S3        30.32S
LURAY*         SUNNY     36  36 100 CALM      30.34R
$$

VAZ048-049-060>072-079>083-181000-
CENTRAL AND SOUTH CENTRAL VIRGINIA

CITY           SKY/WX    TMP DP  RH WIND       PRES   REMARKS
RICHMOND       CLEAR     41  39  93 CALM      30.35R
CHESTERFIELD*  NOT AVBL
PETERSBURG*    CLEAR    N/A N/A N/A CALM      30.36R
HANOVER        CLEAR     38  37  97 CALM      30.36R
TAPPAHANNOCK*  CLEAR    N/A N/A N/A CALM      30.35R
QUINTON*       FAIR      38  38 100 MISG      30.35R
CHARLOTTSVILLE CLEAR     41  39  93 CALM      30.34R
GORDONSVILLE*  SUNNY     35  35 100 CALM      30.34R FOG
ORANGE*        CLEAR     34  34 100 CALM      30.34R
LOUISA*        CLEAR     32  30  93 CALM      30.34R
BUMPASS*       FAIR      37  37 100 CALM      30.34R
FARMVILLE*     CLEAR     34  34 100 CALM      30.34S
CREWE*         FAIR      34  34 100 CALM      30.35R
FORT PICKETT*  FAIR      38  38 100 CALM      30.35R
CHASE CITY*    FAIR      37  37 100 CALM      30.35R
CLARKSVILLE*   FAIR      37  37 100 CALM      30.35R
SOUTH HILL*    CLEAR     34  34 100 CALM      30.40S
LAWRENCEVILLE* FAIR      34  33  97 CALM      30.35R
EMPORIA*       PTCLDY    34  34 100 CALM      30.37R
$$

VAZ088>098-181000-
SOUTHEAST VIRGINIA

CITY           SKY/WX    TMP DP  RH WIND       PRES   REMARKS
NORFOLK        CLEAR     47  45  93 CALM      30.33R
VIRGINIA BEACH PTCLDY    45  41  86 CALM      30.31R
NORFOLK NAVAL  PTCLDY    46  43  89 CALM      30.35R
WEST POINT*      N/A     40  40 100 CALM      30.36R VSB<1/4
SALUDA*        FAIR      40  40 100 CALM      30.34R
NEWPORT NEWS   CLEAR     42  40  92 CALM      30.35R
LANGLEY AFB    CLEAR     45  44  96 CALM      30.33R
FORT EUSTIS    CLEAR     43  40  87 CALM      30.32R
WILLIAMSBURG*  CLEAR     43  43 100 CALM      30.36R
HR EXEC AP*    NOT AVBL
FRANKLIN*      PTCLDY    36  35  96 CALM      30.36R
US460-WAKEFLD  CLEAR     37  36  96 CALM      30.35R
$$

VAZ020-022-025-037-045-181000-
WEST CENTRAL AND SOUTHWEST VIRGINIA

CITY           SKY/WX    TMP DP  RH WIND       PRES   REMARKS
STAUNTON*      CLEAR     31  30  94 CALM      30.37R
WAYNESBORO*    SUNNY     35  35  99 CALM      30.34R
HOT SPRINGS VA CLEAR     45  28  51 CALM      30.34R
LYNCHBURG      CLEAR     36  34  92 CALM      30.34S
DANVILLE       CLEAR     37  36  96 CALM      30.34F
SOUTH BOSTON*  FAIR      34  32  95 CALM      30.35S
MARTINSVILLE   CLEAR     34  33  98 CALM      30.37S
ROANOKE        CLEAR     41  39  93 N3        30.37R
BLACKSBURG     CLEAR     37  37  99 CALM      30.37S
DUBLIN*        CLEAR     38  37  98 CALM      30.35S
MARION*        CLEAR     37  34  90 CALM      30.35S
HILLSVILLE*    CLEAR     41  35  80 CALM      30.32R
RICHLANDS*     FAIR      44  36  72 CALM      30.32R
WISE*          CLOUDY    46  36  66 CALM      30.31S
ABINGDON*      CLOUDY    44  39  82 E7        30.31S
$$

MDZ021>025-VAZ099-100-181000-
SOUTHERN MARYLAND AND THE DELMARVA PENINSULA

CITY           SKY/WX    TMP DP  RH WIND       PRES   REMARKS
PATUXENT RIVER CLEAR     40  27  59 SW3       30.33S
BAY BRIDGE APT CLEAR     52  45  76 W3        30.34R
LEONARDTOWN    NOT AVBL
DOVER          CLEAR     43  43 100 SW6       30.33R
GEORGETOWN     PTCLDY    39  37  92 CALM      30.35R
EASTON         CLEAR     43  41  93 CALM      30.37S
CAMBRIDGE      CLEAR     39  37  93 CALM      30.34R
SALISBURY      PTCLDY    37  35  92 CALM      30.34R
OCEAN CITY     CLEAR     38  37  97 NW3       30.34S
WALLOPS ISLAND CLEAR     40  40 100 CALM      30.34R
ACCOMACK*      CLEAR     40  40  99 CALM      30.35R
$$

NCZ012>017-030>032-181000-
NORTH CENTRAL AND EASTERN NORTH CAROLINA

CITY           SKY/WX    TMP DP  RH WIND       PRES   REMARKS
ROANOKE RAPIDS FAIR      36  36 100 CALM      30.34S
RALEIGH        CLEAR     39  38  96 CALM      30.34S
ELIZABETH CITY CLEAR     52  49  89 N8        30.32R
AHOSKIE*       CLEAR     36  36 100 CALM      30.35R
EDENTON*       CLEAR     48  44  87 CALM      30.32S
CURRITUCK*     CLEAR     48  46  93 CALM      30.32R
KILL DEVIL HLS PTCLDY    58  47  66 CALM      30.29R
MANTEO         CLEAR    N/A N/A N/A NE9       30.30R
CAPE HATTERAS  CLEAR     61  53  75 NE9       30.26S
TARBORO*       NOT AVBL
GOLDSBORO      CLEAR     44  41  87 CALM      30.30R
WASHINGTON     CLEAR     44  42  91 N6        30.32R
GREENVILLE     CLEAR     39  39 100 CALM      30.32S
NEW BERN       CLEAR     50  47  89 N8        30.31R
WILMINGTON     CLEAR     48  45  89 N7        30.28S
$$

VAZ048-181000-
ELSEWHERE

CITY           SKY/WX    TMP DP  RH WIND       PRES   REMARKS
HARRISBURG PA  CLEAR     43  42  97 NE3       30.31R
BALTIMORE      CLEAR     40  40 100 CALM      30.33S
ANNAPOLIS      CLEAR     45  44  97 W3        30.33R
ANDREWS AFB    CLEAR     40  38  92 CALM      30.33R
PHILADELPHIA   CLEAR     48  41  76 SW3       30.32S
HENDERSON NC   CLEAR     35  34  96 CALM      30.34S FOG
GREENSBORO     CLEAR     41  39  93 CALM      30.32S
ROCKY MOUNT    CLEAR     42  42 100 CALM      30.33S
$$

VAZ100-181000-
MARINE

STATION/POSITION TIME  TEMP    WIND        PRES    WAVE   SWELL
                       AIR SEA DIR/SP/G            HT/PER HT/PER
                 (UTC) (F)     (DEG/KT/KT) (MB)    (FT/S) (FT/S)
BRANDYWINE LGT   0836   56     260/ 11/ 12 1027.3R
CAPE MAY NJ      0836   57 65  270/  8/ 10 1026.5R
LEWES DE         0836   46 63  230/  6/  7 1026.9R
15NM E FENWICK I 0850   58 67  300/  4/  8 1027.5R   3/11   2/11
OCEAN-CITY-INLET 0836   48 63  360/  2/  3 1027.4F
WACHAPREAGUE VA  0836   46 62  310/  2/  4 1027.1R
THOMAS POINT MD  0900   52 67  280/  7/  8   N/A
GOOSES REEF MD   0850   57     280/  8/  8 1027.4R
COVE POINT MD    0836   53     270/  3/  6 1027.8R
SOLOMONS ISLAND  0836   52 70  320/  3/  3 1026.7S
BISHOPS HEAD MD  0836   57 61     CALM     1027.3R
PINEY POINT MD   0836          270/  4/  6   N/A
POTOMAC MD       0850   58     320/  4/  4 1026.6R
CAMBRIDGE MD     0836   46 66              1027.8R
LEWISETTA VA     0836   49 64  270/  5/  6 1027.2R
RAPPAHANNOCK LGT 0836           50/  5/  6 1027.7R
STINGRAY PT      0850   57     340/  6/  8 1027.4R
YORK RVR RNG VA  0836   58      40/  5/  7 1027.4R
YORKTOWN VA      0836   54 70  290/  5/  6 1026.8R
JAMESTOWN VA     0850          340/  6/  6   N/A
DOMINION TERM VA 0836   54      40/  1/  3 1027.1R
KIPTOPEKE VA     0836      66   40/  5/  6   N/A
CAPE HENRY VA    0836   58      10/ 11/ 13   N/A
WILLOUBY STN VA  0836   58      10/  5/  7 1026.8R
S CRANEY ISL VA  0836   52     210/  2/  3 1026.6R
CAPE HENRY BUOY  0830      70                N/A     3/11   2/11
1ST LANDING BUOY 0850   58                 1027.0R
CAPE CHARLES BUO 0821      70                N/A     3/ 7
64NM E OF VA BCH 0850   61 67   30/ 10/ 14 1026.3R   5/ 7   5/ 7
DUCK PIER NC     0836   60 68   40/ 13/ 17 1025.7R
44100 DUCK FRF   0835      71                N/A     5/ 7   2/11
44056 DUCK FRF   0830      70                N/A     4/ 8   2/11
OREGON INLET NC  0836   60 65   10/ 10/ 14 1025.5R
HATTERAS NC      0836   62 68   40/ 14/ 18 1024.4S
DIAMOND SHLS NC  0850   67 81   20/ 21/ 25 1023.3R   7/ 8   3/10
CAPE LOOKOUT NC  0900   59      10/ 14/ 19 1024.3R
$$




USA.gov is the U.S. government's official web portal to all federal, state and local government web resources and services.